GFSGL_sfc_temp_120.txt.gz
Temp
44 45 46 47 49 51 59 64 62 61 61 61 62 62 61 60 60 59 59 58 57 57 57 58 58 58 57 57 57 56 56 56 53 53 57 58 57 58 60 59 59 59 58
43 43 44 45 46 47 49 54 61 60 60 60 61 62 61 60 59 59 57 57 57 56 57 57 57 57 57 57 57 56 56 55 54 52 54 54 56 58 59 57 58 60 60
41 41 42 42 43 44 46 49 56 60 60 60 61 61 61 59 59 59 59 58 57 57 57 57 57 57 56 56 56 56 56 56 55 53 53 54 56 56 55 56 57 57 56
39 39 39 40 41 42 44 44 46 49 59 59 60 61 61 60 59 59 58 57 57 57 58 58 58 57 57 57 56 56 56 55 55 54 54 53 54 54 55 55 54 55 51
38 37 37 39 41 41 42 43 43 43 45 47 59 60 60 59 59 59 59 58 57 57 58 58 59 57 52 55 57 57 57 55 55 54 54 54 53 52 53 55 55 55 51
35 35 37 38 39 39 39 40 41 41 41 41 42 46 52 45 41 45 54 58 58 57 57 57 58 50 50 46 46 48 54 56 55 54 54 53 54 55 54 54 54 51 46
32 33 34 36 36 37 37 38 38 37 39 38 38 38 38 38 37 43 43 58 57 57 57 56 56 56 51 54 40 38 38 37 39 56 54 53 52 53 53 51 52 50 47
30 31 32 33 33 35 35 35 35 36 35 35 36 36 36 37 36 38 41 50 47 41 40 43 53 52 51 47 45 41 37 36 38 39 41 39 39 41 47 50 51 39 36
27 27 29 31 31 32 31 32 33 33 33 33 33 33 34 34 36 36 38 37 35 34 35 35 36 41 37 42 43 36 33 32 35 36 35 35 35 35 37 43 39 39 34
25 26 27 29 29 29 30 30 32 32 32 33 32 32 33 32 34 35 36 34 32 32 33 33 34 36 36 37 41 37 33 30 30 30 30 30 30 31 31 32 34 36 33
29 27 26 28 28 29 30 31 31 31 32 31 31 31 31 31 32 33 34 34 32 32 32 32 32 34 34 34 34 34 32 31 29 29 28 28 28 27 27 28 28 33 33
29 27 26 27 29 29 29 29 29 30 30 29 30 30 31 31 32 32 32 31 31 29 28 29 31 33 33 32 32 32 32 31 29 28 27 25 25 25 25 26 27 27 27
30 28 27 27 26 28 28 28 29 29 28 28 28 28 29 30 30 31 31 30 29 27 28 29 29 29 29 29 30 30 30 30 27 25 23 23 24 25 27 27 27 27 26
28 28 28 26 25 25 27 28 27 27 27 27 26 26 27 28 28 29 29 28 29 27 26 26 27 27 26 25 26 26 26 26 25 24 23 24 25 24 23 25 24 25 24
28 27 27 27 25 25 25 25 25 26 27 25 25 25 25 25 27 29 29 26 26 25 25 24 23 23 23 23 23 23 24 25 24 25 24 24 23 24 24 25 25 25 24
26 25 25 25 23 23 21 21 27 28 28 29 29 26 25 29 30 30 29 29 28 27 23 20 20 20 20 20 20 20 21 22 23 23 23 23 23 23 22 23 23 23 20
22 23 22 22 21 20 18 17 13 19 26 26 26 27 27 27 27 28 27 26 25 23 18 18 17 18 18 19 19 19 18 20 22 21 21 22 22 22 22 21 21 21 20
17 16 15 16 14 11 8 9 9 12 10 12 20 22 24 25 25 24 24 21 16 17 16 14 14 15 16 16 16 16 16 17 18 19 19 19 20 21 20 20 20 20 20
18 17 14 12 11 10 9 10 9 11 11 12 14 16 16 21 21 20 19 12 11 12 13 13 12 12 12 13 11 12 12 12 13 14 15 16 17 18 17 17 17 17 19
13 13 11 11 11 10 8 8 9 8 9 9 9 9 11 11 8 8 9 8 9 10 11 11 11 10 8 9 8 8 9 10 11 12 10 11 13 15 14 14 14 14 15
9 10 9 10 9 10 7 6 6 5 5 5 3 2 6 6 4 5 6 6 6 7 6 7 6 5 7 6 6 5 5 5 7 9 10 11 10 11 13 13 13 14 14
7 8 9 7 8 7 11 12 8 2 3 3 1 5 2 1 3 3 2 -1 1 5 5 3 3 2 2 2 3 1 0 -0 1 3 7 8 10 10 11 10 9 10 12
6 5 8 9 9 6 4 7 5 0 -1 -3 1 2 2 -6 -7 -3 -5 -8 -1 -2 -0 0 0 1 -0 -2 -1 0 -0 -2 -2 -2 2 6 8 7 7 7 7 7 7
3 1 6 4 4 6 1 -2 -1 3 3 -3 -7 -6 -7 -9 -12 -10 -10 -9 -7 -8 -8 -6 -2 -1 -0 -3 -3 0 1 -3 -2 -1 -4 2 5 5 5 4 5 1 2
-2 -3 -3 -1 -4 -5 -1 2 -5 -7 -5 -6 -4 -0 3 -6 -4 -11 -11 -8 -7 -7 -2 -3 -4 -4 -5 -5 -4 -3 -5 -7 -7 -7 -3 -1 -1 -1 0 1 0 3 -0
3 -0 -3 -5 -5 -7 -10 -10 -5 -4 -6 -8 -7 -4 -3 1 1 -11 -10 -5 -6 -7 -6 -7 -4 -5 -3 -2 -2 -5 -7 -7 -8 -11 -8 -1 -0 -1 -1 -2 -2 1 0

GFSGL_sfc_temp_123.txt.gz
Temp
42 44 45 45 47 48 49 50 52 63 64 65 67 67 67 65 63 61 61 62 61 61 60 60 60 62 61 60 60 61 59 59 55 56 57 58 58 58 58 59 60 61 63
42 42 42 44 44 45 46 47 48 50 63 63 64 65 67 65 63 60 60 61 60 59 59 59 60 63 60 60 59 59 60 61 56 54 55 56 58 59 59 58 59 63 65
42 41 41 41 42 42 43 45 46 47 49 60 62 62 62 62 62 61 60 60 60 60 60 59 61 63 59 59 59 60 60 59 56 54 53 55 57 57 57 58 62 64 64
41 39 39 40 40 40 42 42 43 45 45 46 48 59 61 62 61 61 60 60 59 60 61 60 62 63 62 61 60 60 60 57 56 55 54 53 55 56 57 56 55 60 57
38 38 37 38 40 41 40 40 41 41 43 44 44 44 43 46 42 42 56 59 58 58 58 60 64 62 53 58 59 59 58 56 55 54 54 54 54 53 54 57 56 55 51
36 35 37 38 38 39 39 40 39 39 39 39 39 41 40 41 37 38 41 57 58 57 57 60 64 52 51 47 47 48 56 57 55 55 55 54 55 55 56 55 55 53 47
33 33 34 36 36 36 37 37 38 38 37 36 35 37 36 36 37 38 38 50 57 57 58 59 59 58 53 58 45 41 40 40 43 60 56 56 55 57 56 54 55 54 52
31 30 32 33 34 35 36 35 35 36 35 34 35 35 35 35 35 36 37 39 38 37 37 39 45 54 54 55 48 44 41 40 41 44 51 54 53 54 57 56 54 40 38
28 28 29 31 31 32 32 32 34 35 34 33 33 33 32 33 34 34 37 38 35 33 35 35 36 38 36 40 47 40 35 33 36 36 36 36 35 36 41 48 41 41 35
28 28 29 31 30 30 31 31 33 33 33 35 33 33 33 32 34 34 33 34 33 33 33 33 33 34 35 36 42 40 36 33 32 32 32 31 32 32 32 33 43 44 35
32 30 29 30 30 31 31 32 31 32 32 32 32 32 32 32 32 33 33 30 29 29 29 29 31 33 33 34 34 34 33 32 31 30 29 29 28 27 28 29 30 34 34
31 31 30 29 30 31 30 31 32 31 30 30 30 31 32 32 32 32 32 31 30 27 27 28 29 31 31 31 32 32 32 32 30 28 27 25 25 25 26 27 27 28 29
31 30 31 31 30 30 29 29 30 30 29 29 28 28 29 30 31 31 31 30 30 29 29 28 29 29 29 28 29 29 29 28 27 25 24 23 24 26 27 27 28 28 27
31 30 31 31 31 31 31 30 29 29 28 27 27 27 29 29 29 29 30 31 29 29 28 27 27 27 27 27 27 27 27 26 25 24 23 24 25 25 24 26 25 26 25
31 30 29 31 30 30 30 27 27 27 27 26 26 26 25 26 27 29 28 28 28 27 28 27 26 26 25 25 25 26 27 27 26 26 26 25 25 25 25 26 26 26 24
28 27 26 28 28 28 28 29 27 27 27 27 27 26 27 27 28 29 27 27 27 27 26 23 23 24 23 24 23 24 24 25 26 26 25 25 24 24 24 25 27 26 24
25 25 26 26 26 24 24 24 22 26 25 24 25 24 26 26 26 26 26 25 25 26 23 22 21 22 22 23 24 24 22 23 24 24 25 24 24 24 24 24 24 24 24
22 20 23 22 22 22 22 22 22 20 19 20 22 22 22 23 23 23 23 25 23 23 22 20 20 21 22 22 22 23 24 24 22 23 23 23 24 24 23 24 24 24 24
22 22 22 22 22 20 22 22 22 21 20 19 20 20 19 20 20 19 20 19 18 18 19 19 19 20 20 20 20 21 20 20 22 22 23 23 24 24 23 23 22 22 24
21 18 18 21 21 21 21 21 20 20 19 18 16 16 18 18 16 15 16 16 16 16 17 17 17 17 17 18 18 19 20 20 21 22 21 22 22 24 22 22 22 22 23
20 20 16 21 20 20 20 20 19 19 18 17 15 13 10 15 14 13 13 13 14 14 13 14 14 13 14 15 16 16 16 17 18 19 21 21 21 20 21 21 21 21 22
18 18 19 18 19 18 17 19 18 18 17 16 16 15 10 15 14 13 12 11 11 13 13 12 11 11 10 10 11 13 13 12 13 16 18 18 20 20 20 20 20 19 20
17 16 17 17 17 15 16 16 16 17 16 15 15 15 14 13 12 12 11 10 11 10 10 11 10 9 9 8 9 10 9 9 9 10 14 17 18 19 19 18 17 17 17
15 15 15 15 15 15 15 15 14 13 14 14 13 13 13 12 11 11 10 11 10 10 9 8 8 6 7 7 8 9 9 8 9 10 10 15 17 17 17 16 15 14 15
14 14 13 13 12 12 12 13 13 13 13 13 13 13 13 13 12 11 11 10 9 10 9 8 8 7 5 4 4 4 3 2 3 3 12 13 12 12 13 14 14 14 12
14 13 13 13 12 12 12 11 12 12 11 12 12 11 11 11 11 11 11 10 9 9 7 9 7 5 5 7 6 3 2 1 3 -1 8 13 13 13 13 11 10 13 12

GFSGL_sfc_temp_126.txt.gz
Temp
45 44 45 47 49 48 48 48 48 50 54 60 66 67 66 65 66 66 66 67 66 65 64 64 64 65 64 66 63 63 62 61 59 66 66 67 62 59 58 61 60 61 61
44 43 43 43 44 44 44 45 46 47 49 51 54 66 65 66 68 66 66 66 64 61 62 61 62 63 64 64 62 63 66 63 63 57 61 59 59 59 59 58 58 60 60
43 42 41 41 41 41 42 43 43 44 45 47 48 47 51 61 63 64 65 64 63 62 62 61 62 62 61 62 63 65 64 62 64 62 59 58 58 59 57 58 58 58 59
42 42 41 40 41 41 42 42 41 42 41 42 44 43 44 43 43 43 47 58 61 61 62 62 62 63 62 61 62 66 64 63 62 61 58 55 57 58 58 56 55 57 57
40 41 42 43 42 41 41 42 42 41 41 40 40 40 40 41 39 39 42 48 57 61 61 61 62 61 55 59 63 64 64 62 59 58 55 55 54 54 54 57 55 56 56
38 38 41 43 45 42 41 41 41 42 41 41 38 38 37 38 36 37 39 49 52 58 59 59 60 52 52 48 47 50 60 62 58 57 55 54 55 55 56 55 55 53 49
37 37 38 41 42 43 44 42 41 38 40 38 38 38 36 35 35 36 37 42 40 39 39 40 51 59 52 59 47 44 46 46 48 59 58 59 58 61 57 54 54 55 54
34 33 35 37 38 40 40 40 40 40 39 37 37 36 37 36 35 35 37 39 37 37 36 35 36 40 38 39 57 53 52 46 45 47 54 60 61 65 61 61 56 51 39
30 31 32 34 35 35 35 35 37 38 36 36 36 35 34 34 34 34 36 36 34 34 34 34 33 34 34 36 45 49 40 35 36 37 36 36 36 36 41 54 43 43 37
31 31 32 33 33 32 33 33 35 36 34 37 34 33 33 32 34 34 35 33 30 31 31 32 32 32 33 34 40 43 41 35 33 33 33 32 32 32 32 34 44 46 37
35 33 33 33 32 32 33 33 32 33 33 32 32 32 32 32 32 33 33 32 32 31 28 28 30 31 32 32 33 33 32 32 31 31 30 29 29 28 29 30 30 34 35
35 36 34 33 34 32 32 32 33 33 32 32 32 32 33 32 32 32 33 32 31 31 30 31 30 31 30 30 30 30 31 31 31 30 27 26 27 27 27 28 29 29 30
38 36 36 36 35 35 32 31 32 32 33 32 32 31 32 34 33 32 32 32 32 31 31 31 31 31 30 29 29 29 28 27 26 25 24 24 25 27 28 28 29 29 28
37 37 38 37 37 37 37 33 29 28 28 29 28 28 30 31 31 32 32 32 32 32 31 32 31 30 31 30 30 30 30 28 25 24 24 25 27 26 26 28 28 28 26
37 36 35 37 37 37 36 32 30 27 27 25 25 26 25 25 26 29 28 29 29 30 32 32 31 31 30 30 30 29 29 29 28 28 27 26 26 26 27 29 28 27 25
33 34 32 34 34 34 34 34 28 27 27 26 26 25 27 26 27 27 28 28 29 30 30 28 27 28 28 28 27 27 27 27 27 27 27 27 26 27 27 28 29 28 27
30 30 32 32 32 31 30 30 28 30 30 27 25 24 25 25 25 25 27 28 28 30 28 27 25 26 26 27 28 28 26 26 27 27 27 26 26 26 27 26 27 27 26
27 26 28 28 28 28 28 28 28 26 25 26 27 25 24 24 24 24 25 29 28 28 27 26 25 26 27 28 28 27 27 27 26 26 26 26 26 26 25 25 25 25 25
27 27 27 28 28 27 28 28 27 27 26 25 26 25 24 24 24 23 24 24 23 23 24 24 24 24 25 26 24 26 26 27 27 27 27 28 27 27 24 23 23 23 25
27 24 24 27 27 27 27 26 26 25 25 24 23 20 21 24 21 21 21 20 21 21 21 22 22 21 21 22 23 23 25 25 27 27 27 26 28 28 27 27 27 27 27
26 26 23 26 26 25 25 25 24 24 23 23 22 18 16 21 20 20 19 19 18 19 18 19 19 18 19 20 21 21 21 21 23 24 25 26 25 26 27 27 26 27 28
24 24 25 24 25 23 22 24 23 23 23 22 21 22 18 20 20 20 19 17 17 18 19 18 18 18 16 16 17 18 19 18 18 20 23 24 25 25 25 25 25 25 26
23 22 23 23 22 21 22 22 22 21 21 20 20 19 19 18 18 18 17 17 17 16 16 16 15 15 15 16 16 16 15 15 16 17 19 22 23 24 24 23 23 22 21
22 21 21 21 20 20 20 19 20 19 19 19 18 18 18 17 17 16 16 16 16 16 15 15 14 12 11 12 14 15 13 12 15 17 18 20 21 22 22 22 21 19 20
21 20 20 19 19 18 18 19 18 18 18 17 17 17 17 17 17 16 16 16 15 15 15 14 13 12 11 10 9 8 7 7 9 8 18 19 18 18 19 20 19 19 18
21 20 20 19 18 18 17 17 17 17 16 16 16 16 16 16 16 16 16 15 14 14 14 14 13 11 10 13 9 6 5 5 7 8 13 18 18 18 19 17 13 19 17

GFSGL_sfc_temp_129.txt.gz
Temp
45 45 45 45 47 48 47 47 48 49 50 51 53 53 67 69 69 66 64 65 64 66 67 66 68 71 69 71 70 71 69 69 62 69 72 70 67 68 65 63 62 62 58
43 43 42 44 45 45 45 44 45 45 46 46 46 47 47 46 45 48 60 64 63 64 64 64 64 65 66 65 65 64 67 67 63 59 66 64 67 68 67 60 60 61 61
44 45 44 44 43 43 44 44 44 44 44 44 43 42 42 41 42 43 45 48 59 63 64 63 63 63 62 62 62 62 63 65 63 61 64 63 63 65 61 59 59 59 60
39 43 44 45 45 44 44 44 43 44 42 42 41 40 40 39 39 40 43 45 49 54 62 64 63 62 61 62 62 61 62 62 61 60 64 60 61 59 59 56 55 57 56
38 38 41 44 43 43 42 42 42 41 40 40 40 38 37 38 37 38 42 47 49 50 49 57 61 59 53 56 62 62 62 61 60 60 62 58 57 55 55 56 55 56 57
37 38 41 42 43 42 42 42 42 41 40 40 38 38 36 36 35 37 40 41 40 39 39 40 45 49 41 45 47 47 58 62 60 60 61 56 57 57 57 56 55 53 51
36 38 40 41 41 40 41 42 41 40 41 39 39 40 37 35 35 36 37 39 37 36 35 35 38 41 39 40 40 43 45 44 46 62 60 59 59 59 58 56 55 55 54
35 35 37 38 38 39 38 38 39 39 38 38 37 37 38 37 35 35 38 38 36 35 34 33 33 35 35 35 39 43 54 54 49 50 57 60 61 62 60 61 59 55 40
33 34 35 35 35 36 35 35 37 37 37 36 36 36 35 35 34 34 38 39 38 34 33 32 33 33 33 35 39 40 45 36 36 37 37 36 36 36 39 58 51 44 35
33 34 35 35 34 33 34 34 36 37 36 37 36 35 34 33 34 34 35 35 33 34 34 32 32 32 32 33 33 35 35 32 33 33 33 33 32 33 33 33 48 48 36
39 37 36 36 34 34 34 35 34 35 35 33 33 33 33 33 33 34 33 32 31 32 32 31 32 33 33 32 31 30 30 32 32 32 32 31 30 30 29 31 31 33 36
40 40 38 38 38 35 33 34 33 33 33 32 32 32 33 32 33 32 33 33 32 31 31 31 32 33 33 32 31 30 29 29 29 28 28 26 26 27 28 29 29 30 32
41 39 40 39 40 39 36 33 32 32 32 31 31 30 31 32 31 31 31 32 32 32 32 32 33 33 33 32 32 31 31 29 26 25 24 25 26 28 28 29 30 30 29
41 39 40 39 39 40 38 36 32 28 28 28 26 26 27 28 27 29 30 31 31 32 32 33 33 32 33 33 32 32 31 30 30 28 27 27 28 28 28 29 28 27 26
38 39 36 38 38 38 38 34 33 28 27 25 24 25 24 24 24 27 28 29 30 31 32 32 31 31 30 31 31 31 31 31 30 30 28 28 28 29 28 30 28 26 24
35 35 35 35 36 36 36 36 30 29 28 28 27 26 26 26 27 27 28 30 30 31 31 28 27 28 28 29 28 28 29 29 29 30 29 28 27 27 28 29 29 28 26
32 31 33 33 33 32 32 31 29 33 33 31 28 27 26 26 26 26 27 29 30 30 27 26 25 26 27 28 28 28 27 28 29 29 28 27 28 27 27 27 27 27 26
29 28 29 30 30 30 30 30 30 28 27 28 30 27 25 26 27 26 26 28 26 26 25 24 23 24 25 26 26 26 27 28 28 28 28 27 27 25 24 24 25 25 25
29 28 27 30 30 29 30 30 29 29 28 27 29 28 25 24 27 26 26 23 21 22 22 23 23 22 22 24 24 24 26 26 27 27 27 27 27 27 24 24 24 24 24
30 28 27 29 29 29 29 28 28 27 27 26 25 23 23 23 23 23 23 21 20 21 20 21 22 21 20 20 22 22 23 24 24 26 26 27 27 28 27 26 26 24 23
28 28 27 28 28 28 27 26 26 26 25 24 24 22 19 21 21 21 21 19 18 18 18 19 19 20 19 19 19 20 21 20 21 22 24 26 26 26 27 27 27 27 28
27 27 27 26 27 26 25 26 25 24 24 23 23 24 22 22 21 20 20 19 19 18 19 18 17 17 17 17 17 17 17 17 17 18 20 23 25 26 26 25 25 26 27
27 26 26 26 25 23 24 24 23 23 22 22 22 21 21 20 20 19 18 18 18 18 18 17 16 15 15 15 16 16 14 13 14 17 18 20 23 23 24 23 23 22 21
26 25 24 24 24 23 22 21 22 22 21 20 20 20 19 19 18 19 18 18 18 18 18 16 15 15 14 13 13 13 12 11 13 14 14 19 20 21 22 22 21 21 21
25 23 23 22 22 21 20 20 20 20 20 19 18 18 18 18 18 18 18 18 17 17 17 17 16 14 13 13 10 9 7 7 9 10 14 18 19 19 19 20 20 20 19
24 24 22 22 21 20 20 19 18 19 18 18 18 18 18 18 18 17 17 17 16 15 16 16 16 14 14 15 10 8 6 6 7 7 12 18 17 17 17 18 18 19 18

GFSGL_sfc_temp_132.txt.gz
Temp
43 44 44 44 43 44 44 43 44 44 44 44 45 45 46 46 46 48 50 60 63 65 66 66 66 66 64 64 64 65 64 63 59 63 64 62 62 61 61 61 61 62 58
42 43 43 43 44 42 43 42 43 43 43 43 42 42 42 42 43 43 45 47 50 54 63 63 64 65 65 64 63 62 62 62 62 60 62 59 59 61 64 60 60 61 62
40 41 42 42 42 41 42 42 42 42 42 41 40 40 39 39 40 42 44 47 48 51 52 49 59 63 62 62 62 62 63 63 62 62 62 60 60 60 59 58 58 60 61
36 38 38 39 41 42 42 41 41 41 40 41 39 38 39 38 39 40 44 42 42 43 44 44 46 43 41 48 59 61 62 61 61 60 60 60 59 58 59 58 55 58 58
33 35 36 38 40 41 41 41 41 40 40 40 39 37 36 36 37 37 41 39 39 39 40 41 43 41 40 39 41 42 53 60 60 59 58 58 57 55 56 57 56 55 56
35 35 37 38 39 39 39 39 39 39 38 37 37 37 34 35 35 36 38 37 37 36 35 36 38 38 37 37 38 38 39 44 54 58 58 57 58 58 57 56 55 53 51
34 35 36 37 37 37 38 38 37 37 37 36 35 35 34 33 35 36 38 39 36 34 33 33 34 36 35 36 37 40 42 42 39 48 55 59 59 59 58 55 55 55 54
34 34 35 35 35 36 36 36 36 36 36 35 34 34 34 34 34 34 36 36 36 35 34 33 32 33 33 33 36 37 40 38 37 38 37 40 44 54 57 58 57 55 43
33 34 34 34 33 34 33 33 35 35 34 34 34 33 32 32 34 34 34 33 33 33 34 33 33 32 34 34 32 32 33 35 37 37 36 35 35 35 35 49 53 46 35
33 34 36 34 33 31 32 32 33 33 32 33 32 32 32 30 33 33 33 31 30 31 33 33 34 33 33 33 31 29 27 28 31 33 34 34 33 33 32 33 33 48 42
38 36 36 36 33 32 32 32 31 31 31 29 29 30 29 29 28 32 33 29 28 29 30 31 32 34 34 34 33 30 29 29 28 29 29 29 31 31 31 31 32 32 34
38 38 36 36 37 34 30 30 29 28 27 26 26 26 28 26 29 30 31 32 31 29 29 31 32 34 34 33 32 32 32 30 29 28 27 26 26 27 29 30 30 30 31
38 35 36 36 36 35 32 28 27 26 25 24 23 23 23 25 24 28 29 31 31 28 30 32 33 33 33 32 33 32 30 29 28 27 27 27 27 28 30 30 30 30 29
37 36 36 34 35 35 33 32 26 24 23 23 21 20 20 21 22 24 25 27 29 28 29 30 30 30 30 28 29 29 28 28 28 27 26 27 30 29 29 29 27 28 26
34 35 33 34 33 33 30 29 28 24 25 22 21 21 19 19 22 26 26 26 27 26 28 27 25 25 25 25 26 26 27 27 26 26 27 26 27 27 28 29 28 26 24
31 30 31 31 31 31 30 30 31 28 28 29 29 24 22 26 29 29 28 29 30 28 24 21 20 20 21 22 22 23 25 25 26 26 26 26 25 25 26 28 28 26 25
28 27 29 30 29 28 28 27 24 29 33 32 30 27 27 26 28 28 27 27 28 26 19 20 19 18 19 20 21 21 22 24 26 26 26 25 24 24 24 24 25 25 24
26 24 25 26 26 26 26 26 25 24 22 23 29 27 26 26 28 28 26 24 18 20 18 17 16 17 18 18 19 20 21 22 23 24 24 25 25 24 23 23 23 23 22
28 25 24 25 26 25 26 25 25 24 23 23 23 22 20 25 26 26 25 17 15 15 16 16 17 16 15 17 16 18 19 19 19 19 23 23 24 24 23 23 23 22 22
27 23 23 25 25 25 24 23 23 22 21 21 21 18 18 18 17 17 17 15 14 14 14 15 15 16 14 14 14 15 16 16 16 17 17 21 23 23 22 22 23 22 21
25 25 21 25 24 23 22 21 22 21 20 20 19 19 18 16 17 16 16 15 14 14 13 13 14 12 12 11 13 12 13 13 14 14 15 17 21 21 23 22 23 23 23
25 24 24 23 23 22 20 22 21 20 19 19 19 19 15 18 18 16 15 12 10 14 15 12 12 12 11 9 11 9 9 8 8 10 12 13 18 19 21 21 20 19 20
24 23 23 23 22 20 20 20 19 19 18 18 18 17 17 16 15 15 16 14 11 10 15 11 7 10 9 7 10 8 6 5 6 8 8 8 15 17 18 18 18 16 16
23 22 22 21 20 19 19 18 18 17 17 17 16 16 16 16 14 13 14 15 10 9 11 10 11 7 6 6 3 4 6 5 5 6 5 8 12 15 15 16 17 15 16
23 21 21 20 19 18 18 18 17 17 17 16 16 15 16 16 15 13 14 14 13 11 7 10 13 10 6 6 2 1 -2 0 2 4 5 7 13 13 12 11 12 13 11
22 22 21 20 19 19 18 17 17 16 15 15 15 15 15 15 15 15 13 8 11 6 8 10 10 11 9 8 4 1 -2 -1 -1 1 2 11 11 8 10 11 11 13 12

GFSGL_sfc_temp_135.txt.gz
Temp
34 36 38 41 42 43 42 41 41 41 41 41 41 41 42 43 46 47 48 49 51 52 52 51 57 61 63 63 63 63 62 61 58 62 61 61 59 62 63 62 61 60 58
33 35 36 41 40 40 40 40 41 40 40 40 39 39 39 40 43 44 44 45 44 44 45 48 46 48 44 50 59 61 61 62 61 58 62 61 59 60 62 61 60 61 60
33 33 35 37 39 38 37 38 39 39 37 37 38 37 37 38 40 41 41 42 42 41 41 43 41 41 40 41 44 46 55 60 60 58 58 62 60 59 57 58 59 60 60
33 34 33 34 37 38 38 37 37 38 37 35 35 36 36 36 38 40 40 39 39 39 39 40 39 37 37 38 40 42 44 46 57 59 59 60 59 60 61 58 58 59 59
33 33 33 36 38 37 37 37 37 36 36 36 34 34 35 35 37 38 38 37 36 36 36 37 38 37 36 36 37 37 40 43 47 50 56 59 59 55 57 59 58 58 58
34 33 34 35 36 37 37 36 36 35 35 34 33 33 32 34 36 36 37 36 36 34 33 34 36 36 35 36 36 36 38 38 39 44 48 50 55 57 58 58 57 55 52
33 33 34 34 34 34 36 35 35 34 33 32 31 32 31 32 34 35 35 35 34 33 32 33 34 35 34 35 35 36 36 36 32 36 36 39 38 39 38 52 57 57 56
34 33 33 33 32 33 33 32 32 33 32 30 29 29 30 32 34 33 34 33 33 33 33 33 32 33 33 33 33 33 34 34 34 35 36 36 36 36 37 40 41 57 48
32 32 32 32 30 30 29 30 31 29 29 29 28 27 25 28 33 33 31 31 31 32 33 33 33 32 34 35 31 31 31 31 34 34 35 35 35 35 35 38 40 44 39
32 32 33 32 30 28 27 28 29 28 27 28 27 25 27 24 31 32 32 29 28 29 31 32 33 33 34 34 30 30 28 29 28 28 29 31 32 32 33 32 32 33 36
34 33 32 32 29 28 27 27 26 25 24 23 22 23 22 24 25 30 31 27 26 26 27 29 30 34 34 34 32 29 28 29 28 28 27 28 29 30 31 31 31 30 32
33 32 31 30 33 29 26 25 24 23 21 20 19 19 21 21 27 28 30 30 30 23 25 28 29 32 32 31 30 31 30 29 28 27 26 26 27 28 29 30 31 30 30
32 30 31 31 30 30 26 24 23 23 21 20 20 18 19 21 22 28 28 29 29 23 27 28 29 29 29 27 29 29 26 25 26 25 24 25 26 28 29 29 30 30 29
30 30 31 29 29 27 27 24 21 19 19 20 18 16 16 19 21 23 23 23 27 24 22 22 20 24 21 21 22 23 24 23 24 24 24 24 25 25 26 28 27 27 26
28 28 28 28 27 27 25 23 23 17 22 18 13 13 14 16 22 27 25 23 23 22 20 19 18 17 17 18 19 20 22 22 22 24 24 23 23 23 23 26 26 25 23
25 24 25 24 24 25 24 25 30 27 28 29 28 23 14 27 29 29 27 26 26 24 16 14 13 13 13 15 15 16 18 19 20 22 23 23 23 22 22 24 25 23 22
23 24 23 24 25 24 23 22 17 21 29 30 29 27 27 27 28 28 26 24 23 20 13 13 13 10 12 13 14 15 15 17 19 18 20 22 23 24 23 22 23 23 22
18 19 15 14 12 14 12 15 13 10 10 12 22 24 25 26 26 26 24 20 13 15 13 11 11 13 13 12 13 13 14 16 15 16 16 17 21 22 22 22 22 21 21
20 14 13 13 12 14 15 14 14 12 9 8 10 13 13 23 24 23 22 6 5 10 12 11 11 12 10 10 10 10 11 11 12 12 13 15 16 21 21 22 21 22 21
18 18 16 15 14 13 12 10 13 10 11 9 9 6 9 10 4 0 -1 -3 -2 4 8 10 11 10 7 7 8 8 8 7 7 9 10 11 12 18 20 20 20 19 21
13 13 14 15 12 11 9 10 12 8 6 6 4 2 8 6 4 3 4 7 3 3 3 8 4 4 2 2 8 5 4 2 3 4 6 8 9 14 17 19 18 18 18
12 12 13 11 12 9 8 10 7 6 6 6 5 9 8 3 5 5 5 6 4 3 3 2 2 4 2 1 2 -7 0 -1 0 1 3 5 7 13 15 17 17 17 17
10 11 12 12 11 9 6 7 6 4 5 4 6 8 6 2 0 3 2 3 8 2 2 3 -2 5 2 -4 -4 -3 -5 -2 0 0 1 2 5 9 13 14 15 14 15
12 10 12 10 7 8 3 1 2 6 6 3 -1 1 1 1 -2 -1 -1 -1 -1 0 -1 -4 2 9 6 -4 -6 -4 -1 -5 -3 -1 -0 2 4 10 10 11 13 13 14
7 6 6 7 6 3 1 2 1 -0 0 0 1 -0 3 0 3 0 -2 -0 -1 -2 -2 -3 -0 4 5 1 -0 -1 -7 -4 -7 -7 -1 2 7 6 9 10 11 12 8
11 12 10 6 5 3 2 1 3 4 5 7 6 4 4 4 4 -2 1 -0 0 2 -2 -2 -1 -1 3 4 4 -2 -7 -5 -6 -4 -2 -1 3 4 6 6 8 10 10

GFSGL_sfc_temp_138.txt.gz
Temp
34 34 35 35 36 37 38 38 39 41 40 40 41 42 43 42 44 44 45 45 45 45 44 44 44 45 45 46 48 52 59 60 58 61 62 62 59 60 61 60 63 62 61
32 33 33 33 33 34 34 36 38 37 38 38 39 39 40 40 40 39 40 41 41 42 40 40 40 43 40 41 44 45 47 49 50 57 60 59 59 60 61 62 61 62 62
33 32 32 33 33 32 33 35 36 35 34 35 37 37 36 38 37 36 36 37 35 37 37 36 37 37 36 37 40 40 43 46 49 49 55 58 59 60 59 61 61 61 61
33 33 32 32 33 35 34 34 34 34 34 33 34 35 36 36 37 36 36 35 36 35 36 36 36 36 35 35 37 37 41 42 44 46 49 52 58 60 60 59 57 59 60
32 32 32 34 34 35 34 34 33 32 32 33 32 33 34 34 36 36 35 34 34 34 34 36 36 36 37 36 36 35 37 36 37 39 43 44 47 45 47 52 58 60 60
33 31 32 33 33 32 33 33 32 30 29 30 31 31 31 33 35 35 35 34 34 33 32 34 35 35 35 35 36 36 35 32 32 33 36 36 37 39 39 38 42 48 55
32 32 32 31 31 31 32 32 30 28 28 27 27 29 30 32 33 34 33 34 33 32 32 32 33 34 34 32 34 34 34 34 31 32 32 33 33 34 34 35 37 39 42
32 31 31 30 29 30 29 28 29 29 26 25 24 25 27 31 33 32 32 30 30 32 31 32 32 32 33 32 31 31 31 31 31 32 31 32 33 34 34 34 34 37 41
30 30 30 29 28 28 27 25 26 25 25 24 24 24 24 27 32 32 29 28 27 27 30 30 31 31 33 34 30 29 29 29 32 33 33 34 34 34 34 32 30 30 33
29 29 30 29 27 25 25 24 25 24 23 23 22 22 25 23 31 32 30 26 23 24 27 27 30 31 32 32 27 27 25 25 27 28 27 28 30 31 32 30 30 27 28
32 30 30 28 25 25 25 24 23 21 21 18 17 18 19 24 25 31 31 25 22 23 24 22 23 30 30 29 29 25 25 27 27 27 27 27 28 28 29 30 30 28 26
30 30 29 28 29 26 20 22 22 21 19 18 18 19 20 18 28 28 29 29 26 21 19 20 21 27 27 26 25 27 27 25 25 25 24 23 23 24 26 28 29 28 29
29 28 28 28 27 27 24 21 21 21 20 19 19 18 19 21 21 27 27 27 26 19 20 22 24 24 23 21 24 24 21 21 21 22 22 22 22 23 24 26 29 29 28
28 28 27 26 26 25 25 23 20 18 18 19 18 15 14 18 21 21 20 20 22 19 16 15 13 19 12 13 16 18 18 18 18 17 21 22 23 22 22 23 24 25 22
27 27 26 26 25 24 24 20 23 21 21 18 13 10 13 15 22 25 23 19 18 18 13 13 12 11 11 12 12 13 14 16 15 16 16 18 20 22 22 23 23 22 20
25 24 23 23 22 23 22 22 29 27 30 27 28 23 13 26 27 27 25 24 23 20 11 9 9 9 8 9 9 10 11 13 14 14 14 15 15 19 21 22 22 21 19
23 24 22 22 23 22 20 19 14 19 27 28 27 26 27 26 26 26 24 22 21 17 9 7 7 7 7 9 9 9 8 11 12 11 12 12 14 15 19 20 20 20 20
19 17 13 10 8 12 10 11 8 6 5 8 18 23 24 25 25 24 22 18 11 12 9 4 5 8 8 8 8 8 7 8 7 7 9 9 10 11 15 18 19 18 20
20 14 10 9 9 10 10 9 9 9 6 4 8 12 10 21 22 21 19 2 -0 3 8 8 4 7 6 7 3 4 3 3 3 2 5 6 7 8 12 16 17 17 18
16 13 13 12 10 10 8 8 9 7 5 2 3 3 6 7 -0 -4 -4 -7 -6 1 3 7 8 7 1 2 -2 -8 1 0 1 1 0 3 5 7 9 13 16 16 17
6 9 10 11 9 8 6 6 6 4 3 2 1 -2 3 4 1 -0 1 2 1 2 -1 3 1 -2 -1 -2 2 -4 -4 -8 -2 -1 -1 1 2 3 8 12 15 16 17
7 8 10 9 9 7 6 7 4 2 3 3 3 7 5 -0 2 3 3 -0 -1 0 1 -0 0 3 4 3 -2 -13 -8 -10 -9 -3 -3 -1 2 3 7 11 12 13 15
7 7 9 10 8 6 4 5 3 1 3 2 5 6 4 -1 -3 1 1 -3 0 -2 -0 -1 -6 2 3 -2 -8 -4 -6 -4 -4 -6 -7 -2 1 3 5 8 10 11 12
9 5 9 8 4 6 -0 -2 1 4 6 4 -0 2 2 2 -1 -0 1 -2 -4 -6 -8 -8 -4 2 3 -4 -6 -2 -0 -6 -7 -6 -7 -2 1 5 5 7 8 9 10
5 2 3 5 4 2 -2 1 -1 -2 -1 -0 1 -2 4 4 3 3 0 -1 -2 -7 -2 -5 -4 -2 -4 -3 -1 0 -7 -7 -10 -9 -3 -2 -3 -2 1 5 5 8 7
8 8 5 3 5 3 1 2 3 -1 0 3 2 2 4 9 10 7 5 1 -3 -0 -1 -1 -2 -2 -1 -1 1 0 -6 -8 -10 -9 -5 -3 -6 -6 -4 -1 4 4 6